Tracking 18784 objects as of 17-August-2017
HD Live streaming from Space Station
objects crossing your sky now

CZ-4 DEB

Track CZ-4 DEB now!
10-day predictions


NORAD ID: 26259
Int'l Code: 1999-057EV
Perigee: 669.1 km
Apogee: 796.7 km
Inclination: 98.6 °
Period: 99.3 minutes
Semi major axis: 7103 km
RCS: 0.031 m2 (small)
Launch date: October 14, 1999
Source: People's Republic of China (PRC)
Launch site: Taiyaun Space Center, China (TSC)

Note: This is SATELLITE DEBRIS
Your satellite tracking list
Your tracking list is empty





NASA's NSSDC Master Catalog

Two Line Element Set (TLE):
1 26259U 99057EV  17228.48822885  .00000513  00000-0  13841-3 0  9998
2 26259  98.5624 212.1946 0089829 209.0908 278.3093 14.49976471914603
Source of the keplerian elements: AFSPC